Temp
6 7 7 7 8 7 7 7 7 7 7 6 6 6 6 6 6 6 7 6 5 5 3 2 2 2 0 0 3 -4 -2 -3 -2 -1 1 2 0 -1 -4 1 -1 -2 -1 -0 -2 -3 0 -4 -2 -4 -3 -6 -7 -8
5 5 6 7 7 7 7 7 7 7 7 6 6 6 5 5 5 5 5 6 5 4 2 2 2 1 1 1 -0 -2 -2 -2 -0 0 -2 -1 -1 -4 -3 2 -5 -4 -2 -0 -0 3 -2 -2 -3 -4 -6 -7 -8 -9
5 5 5 5 6 6 7 8 7 7 7 7 6 6 5 5 5 5 5 5 4 3 2 -0 -1 -1 -1 -1 -0 -1 -3 -2 -3 -2 -3 -2 -3 -2 -0 -1 -3 -4 -7 -5 -5 0 -1 -3 -4 -6 -6 -8 -9 -9
4 4 5 4 5 5 6 6 7 8 7 7 7 6 5 5 5 4 4 4 4 4 1 -3 -3 -3 -2 -2 -2 -2 -2 -2 -3 -4 -4 -3 -2 -4 -2 -5 -4 -3 -7 -5 -4 -2 -3 -3 -5 -6 -8 -9 -8 -8
2 3 4 4 5 5 5 5 6 7 7 7 7 6 5 5 4 4 3 3 3 4 1 -5 -4 -4 -4 -4 -3 -4 -3 -3 -5 -5 -5 -4 -5 -6 -6 -8 -6 -7 -5 -4 1 -1 -3 -4 -6 -7 -8 -9 -9 -10
1 2 3 4 5 5 4 4 5 6 6 7 7 7 5 4 4 3 1 2 2 2 2 -3 -6 -6 -6 -5 -5 -5 -5 -5 -5 -5 -5 -7 -8 -8 -5 -4 -3 -5 -5 -4 -3 -5 -6 -5 -6 -7 -8 -9 -9 -9
-1 1 2 3 4 5 4 4 4 5 5 6 6 6 5 4 3 2 3 3 2 1 -1 -6 -7 -8 -8 -7 -7 -7 -7 -6 -6 -6 -7 -6 -9 -9 -6 -5 -3 -4 -4 -5 -5 -5 -6 -6 -7 -7 -8 -8 -9 -9
-2 -1 0 2 3 4 4 4 4 4 5 6 5 6 4 2 -0 0 2 2 -0 -1 -1 -4 -6 -8 -8 -7 -7 -8 -8 -8 -8 -6 -9 -8 -10 -10 -8 -6 -6 -5 -5 -5 -5 -5 -6 -6 -7 -7 -8 -9 -8 -9
-2 -2 -1 1 2 3 4 4 4 4 4 4 1 1 -1 -2 -2 -3 -1 -1 -2 -1 -3 -4 -4 -3 -9 -8 -8 -9 -8 -6 -9 -7 -8 -8 -6 -8 -6 -6 -5 -4 -4 -4 -5 -5 -6 -7 -7 -8 -9 -9 -9 -9
-2 -2 -2 -1 1 2 2 4 3 2 3 1 -0 -0 -1 -2 -3 -1 -4 -3 -4 -3 -3 -4 -5 -6 -7 -7 -7 -7 -8 -5 -6 -6 -9 -8 -7 -6 -6 -5 -5 -4 -4 -5 -5 -6 -7 -7 -8 -8 -9 -9 -9 -9
-2 -2 -2 -2 -0 1 1 1 4 1 2 -0 -1 -2 -4 -4 -3 -2 -4 -4 -5 -4 -5 -5 -5 -8 -8 -5 -5 -7 -6 -6 -6 -5 -7 -5 -6 -5 -5 -4 -4 -5 -4 -4 -5 -6 -6 -7 -8 -8 -9 -9 -9 -9
-2 -2 -2 -2 -1 -0 0 1 1 1 0 -1 -1 -5 -5 -4 -4 -4 -4 -4 -4 -1 -5 -6 -7 -8 -9 -7 -8 -9 -7 -9 -5 -8 -8 -7 -5 -5 -5 -3 -2 -4 -4 -5 -5 -6 -6 -7 -8 -8 -8 -9 -9 -9
-3 -2 -2 -2 -2 -0 0 1 1 1 0 -1 -3 -4 -5 -5 -4 -2 -2 -4 -3 -5 -8 -9 -8 -9 -8 -8 -9 -8 -8 -7 -8 -8 -6 -4 -5 -5 -5 -3 -3 -3 -4 -5 -5 -6 -6 -7 -8 -8 -8 -9 -9 -9
-3 -3 -3 -2 -2 -1 1 0 0 1 -1 -1 -3 -5 -4 -5 -4 -1 0 -1 -3 -6 -8 -7 -8 -7 -9 -8 -9 -7 -7 -9 -8 -7 -5 -3 -4 -4 -4 -4 -3 -4 -5 -5 -6 -6 -7 -7 -8 -8 -9 -9 -9 -10
-3 -3 -3 -2 -2 -2 0 0 0 0 -1 -1 -3 -2 -4 -3 -5 -5 -4 -7 -7 -7 -6 -8 -8 -8 -8 -9 -8 -9 -10 -8 -6 -3 -2 -3 -2 -3 -4 -4 -4 -4 -5 -5 -6 -6 -7 -8 -8 -9 -9 -9 -10 -10
-3 -3 -3 -2 -1 -1 -0 0 -2 -2 -1 -2 -3 -4 -6 -5 -8 -9 -8 -8 -7 -7 -5 -6 -7 -7 -7 -7 -8 -7 -6 -4 -2 -5 -3 -3 -2 -3 -3 -4 -4 -5 -5 -6 -6 -7 -7 -8 -8 -9 -9 -10 -10 -11
-3 -3 -3 -2 -1 -1 -1 -2 -2 -1 -1 -5 -5 -5 -5 -4 -5 -8 -7 -8 -7 -5 -4 -7 -6 -4 -8 -7 -7 -5 -5 -2 -3 -4 -2 -2 -1 -2 -3 -4 -4 -5 -5 -6 -6 -7 -8 -8 -9 -9 -10 -10 -11 -11
-3 -3 -2 -2 -2 -2 -2 -2 -2 -3 -6 -7 -6 -7 -6 -7 -7 -8 -8 -8 -7 -5 -7 -5 -8 -8 -6 -5 -5 -4 -5 -4 -4 -3 -2 -2 -2 -2 -3 -4 -5 -5 -6 -6 -7 -8 -8 -9 -9 -10 -10 -11 -11 -11
-3 -2 -2 -2 -2 -2 -3 -4 -4 -7 -9 -9 -9 -8 -7 -8 -8 -7 -7 -8 -7 -6 -6 -7 -6 -5 -5 -4 -3 -4 -5 -3 -5 -4 -3 -3 -3 -3 -4 -5 -5 -6 -6 -7 -7 -8 -9 -9 -10 -10 -11 -11 -12 -12
-3 -3 -3 -3 -2 -3 -4 -7 -6 -8 -9 -9 -10 -10 -9 -9 -9 -8 -8 -8 -8 -7 -7 -7 -6 -4 -4 -2 -1 -1 -2 -2 -2 -4 -5 -4 -4 -4 -5 -5 -6 -6 -7 -7 -8 -8 -9 -9 -10 -10 -11 -11 -12 -13
-4 -4 -3 -2 -3 -4 -7 -9 -10 -10 -10 -10 -11 -10 -11 -10 -9 -9 -9 -9 -7 -7 -7 -7 -5 -3 -2 -1 -1 -1 -1 -1 -1 0 -2 -4 -5 -5 -6 -6 -6 -7 -7 -7 -8 -9 -9 -9 -10 -10 -11 -11 -12 -12
-4 -4 -4 -4 -5 -8 -9 -10 -10 -11 -11 -11 -10 -10 -10 -10 -10 -9 -9 -9 -9 -6 -6 -5 -3 -3 -2 -1 -1 -0 -1 -1 -1 -1 -2 -2 -4 -5 -6 -6 -7 -7 -7 -8 -8 -8 -9 -9 -10 -11 -11 -11 -12 -12
-4 -4 -4 -4 -7 -9 -12 -11 -11 -11 -10 -11 -11 -10 -10 -10 -10 -10 -10 -9 -9 -7 -5 -5 -3 -2 -2 -2 -2 -1 -2 -2 -2 -2 -3 -3 -4 -4 -5 -6 -7 -7 -7 -8 -8 -8 -9 -9 -10 -11 -11 -11 -12 -12
-4 -4 -4 -8 -9 -11 -12 -12 -11 -11 -12 -10 -9 -10 -11 -12 -12 -11 -9 -9 -8 -6 -5 -5 -4 -3 -3 -3 -3 -2 -3 -3 -3 -3 -4 -4 -5 -6 -7 -7 -7 -8 -8 -8 -8 -9 -9 -10 -11 -11 -11 -12 -12 -12
-4 -7 -7 -10 -11 -11 -11 -11 -11 -10 -9 -10 -10 -12 -13 -14 -11 -10 -10 -9 -8 -6 -6 -6 -6 -4 -3 -3 -4 -3 -3 -3 -4 -4 -5 -5 -6 -6 -7 -7 -8 -8 -8 -8 -8 -8 -9 -10 -11 -11 -12 -12 -12 -12
-6 -10 -9 -10 -11 -9 -10 -10 -10 -9 -10 -10 -10 -14 -15 -13 -11 -9 -9 -10 -9 -9 -8 -6 -5 -5 -4 -3 -3 -3 -4 -4 -5 -5 -5 -5 -6 -6 -6 -7 -7 -8 -8 -9 -8 -9 -10 -10 -10 -11 -12 -12 -12 -12
-9 -11 -11 -11 -10 -10 -10 -10 -10 -9 -10 -10 -13 -14 -13 -10 -8 -8 -11 -10 -10 -10 -10 -9 -9 -8 -7 -5 -4 -4 -4 -4 -5 -5 -5 -6 -6 -7 -7 -7 -7 -8 -8 -8 -9 -9 -10 -10 -11 -11 -12 -12 -12 -12
-11 -11 -11 -12 -11 -10 -10 -10 -10 -9 -9 -12 -13 -12 -10 -8 -7 -14 -13 -12 -11 -11 -10 -10 -10 -10 -8 -8 -7 -5 -6 -6 -6 -7 -7 -7 -8 -8 -8 -8 -8 -8 -9 -9 -10 -10 -10 -10 -11 -12 -12 -12 -12 -12
-11 -11 -10 -13 -11 -10 -11 -10 -9 -13 -14 -13 -10 -10 -12 -16 -16 -15 -14 -13 -13 -12 -11 -11 -11 -11 -9 -8 -7 -6 -6 -6 -6 -8 -8 -8 -8 -8 -8 -9 -9 -9 -9 -10 -10 -10 -11 -11 -11 -12 -12 -12 -12 -12
-12 -12 -11 -10 -10 -11 -17 -17 -17 -16 -15 -14 -14 -14 -15 -16 -17 -16 -15 -14 -13 -13 -12 -12 -11 -10 -9 -8 -8 -8 -8 -7 -7 -7 -7 -7 -7 -8 -9 -9 -9 -9 -10 -11 -11 -11 -11 -11 -12 -12 -12 -12 -13 -13
-13 -12 -13 -15 -16 -19 -18 -17 -17 -16 -15 -15 -15 -15 -16 -16 -16 -15 -14 -14 -13 -13 -12 -12 -11 -10 -9 -9 -8 -8 -9 -9 -9 -8 -8 -8 -9 -9 -9 -9 -9 -10 -11 -11 -11 -11 -12 -12 -12 -12 -12 -13 -13 -13
-14 -15 -13 -14 -17 -18 -17 -17 -17 -16 -16 -15 -16 -16 -15 -15 -17 -16 -16 -15 -14 -13 -12 -12 -11 -11 -11 -10 -10 -10 -9 -9 -9 -9 -10 -9 -9 -9 -9 -10 -10 -11 -11 -12 -12 -12 -12 -12 -12 -13 -13 -13 -13 -13
-16 -16 -17 -18 -18 -18 -17 -17 -16 -16 -17 -18 -19 -18 -18 -18 -19 -19 -17 -16 -15 -14 -13 -12 -12 -12 -11 -11 -11 -10 -10 -10 -10 -10 -10 -10 -10 -11 -11 -11 -11 -11 -12 -12 -13 -13 -13 -13 -13 -13 -13 -13 -13 -13
Height
1500 1500 1504 1512 1515 1520 1523 1528 1533 1536 1539 1543 1545 1547 1550 1552 1553 1555 1555 1559 1562 1559 1556 1556 1557 1559 1561 1564 1564 1569 1572 1571 1573 1571 1566 1560 1564 1564 1568 1550 1551 1552 1548 1540 1545 1547 1514 1520 1517 1522 1512 1505 1498 1491
1496 1498 1497 1500 1506 1511 1515 1519 1524 1528 1531 1535 1538 1541 1544 1546 1548 1551 1552 1552 1556 1559 1555 1553 1553 1554 1556 1557 1561 1562 1563 1562 1563 1563 1567 1565 1562 1569 1563 1540 1558 1554 1544 1536 1533 1508 1515 1517 1516 1515 1512 1505 1498 1490
1487 1491 1494 1494 1496 1499 1505 1509 1514 1519 1522 1527 1530 1534 1537 1540 1542 1545 1547 1548 1550 1555 1553 1551 1550 1550 1552 1554 1556 1559 1560 1559 1559 1560 1562 1563 1563 1559 1551 1548 1546 1546 1547 1543 1538 1512 1513 1514 1513 1511 1509 1503 1494 1489
1480 1483 1486 1490 1489 1490 1491 1497 1502 1507 1512 1516 1520 1525 1529 1533 1536 1539 1541 1543 1544 1548 1548 1547 1546 1546 1548 1550 1552 1554 1555 1556 1558 1561 1562 1560 1558 1557 1548 1549 1547 1538 1544 1535 1527 1513 1511 1511 1511 1509 1504 1500 1493 1484
1475 1475 1477 1481 1482 1483 1484 1487 1491 1495 1500 1504 1509 1515 1520 1526 1530 1533 1536 1536 1539 1543 1541 1543 1542 1543 1544 1546 1548 1551 1552 1553 1555 1559 1559 1558 1556 1556 1551 1552 1536 1526 1522 1523 1506 1509 1511 1511 1509 1505 1501 1498 1493 1488
1468 1468 1472 1472 1474 1477 1479 1479 1482 1484 1489 1492 1497 1502 1508 1514 1522 1528 1532 1531 1531 1534 1539 1541 1540 1538 1540 1542 1545 1547 1549 1552 1552 1555 1554 1552 1551 1554 1546 1532 1508 1506 1509 1510 1511 1511 1511 1509 1507 1504 1501 1497 1491 1485
1463 1463 1464 1465 1467 1469 1473 1472 1473 1476 1478 1482 1486 1490 1494 1504 1510 1516 1516 1514 1519 1529 1534 1537 1536 1536 1539 1541 1544 1545 1548 1550 1551 1552 1551 1549 1550 1552 1542 1523 1499 1499 1502 1506 1508 1506 1507 1505 1504 1502 1499 1494 1489 1484
1457 1456 1457 1457 1460 1461 1464 1466 1466 1466 1469 1473 1476 1482 1485 1492 1499 1505 1506 1510 1514 1524 1526 1526 1533 1537 1536 1538 1541 1542 1546 1549 1549 1547 1547 1545 1546 1545 1527 1496 1496 1496 1497 1500 1502 1502 1503 1501 1500 1498 1495 1492 1488 1483
1449 1451 1450 1451 1450 1452 1454 1459 1462 1460 1462 1465 1470 1471 1478 1486 1489 1493 1503 1505 1510 1515 1514 1516 1518 1523 1533 1536 1538 1541 1542 1544 1544 1541 1540 1541 1530 1522 1488 1488 1488 1491 1493 1495 1498 1499 1499 1500 1499 1497 1495 1490 1487 1482
1441 1443 1442 1443 1443 1443 1447 1450 1456 1457 1454 1452 1462 1470 1473 1477 1482 1490 1500 1505 1508 1505 1503 1502 1505 1513 1522 1528 1534 1537 1539 1536 1536 1533 1534 1528 1501 1482 1478 1480 1483 1487 1489 1491 1494 1497 1497 1497 1495 1494 1492 1490 1484 1481
1433 1433 1435 1436 1436 1437 1441 1444 1446 1453 1450 1453 1458 1463 1468 1475 1481 1484 1487 1493 1497 1495 1490 1490 1496 1503 1513 1517 1523 1529 1530 1532 1529 1525 1527 1511 1491 1468 1467 1471 1479 1484 1488 1489 1491 1492 1491 1492 1493 1491 1488 1487 1484 1481
1422 1423 1427 1430 1430 1430 1434 1441 1432 1443 1448 1449 1451 1459 1470 1476 1472 1472 1476 1479 1479 1471 1477 1484 1493 1498 1505 1510 1515 1524 1525 1531 1520 1526 1524 1501 1466 1461 1462 1463 1472 1478 1483 1487 1488 1488 1488 1487 1488 1486 1486 1481 1480 1475
1415 1418 1420 1421 1422 1424 1428 1432 1431 1430 1437 1449 1452 1456 1458 1463 1462 1457 1455 1457 1459 1460 1464 1468 1485 1494 1501 1505 1510 1517 1519 1517 1522 1518 1497 1467 1456 1457 1458 1461 1468 1474 1479 1483 1485 1486 1486 1486 1485 1485 1483 1480 1477 1475
1405 1409 1412 1414 1415 1417 1421 1425 1422 1422 1431 1437 1444 1451 1446 1444 1437 1430 1425 1429 1439 1445 1454 1461 1474 1487 1494 1498 1504 1506 1511 1515 1512 1503 1472 1450 1449 1455 1459 1464 1470 1473 1476 1480 1481 1483 1484 1484 1483 1481 1481 1479 1475 1472
1397 1401 1404 1405 1407 1409 1413 1416 1417 1416 1419 1421 1427 1424 1426 1418 1419 1422 1422 1425 1430 1440 1446 1460 1472 1480 1486 1493 1495 1503 1509 1498 1483 1458 1446 1443 1445 1451 1456 1460 1465 1470 1473 1475 1478 1479 1480 1480 1480 1479 1479 1477 1476 1473
1389 1393 1392 1396 1399 1402 1404 1408 1410 1410 1409 1406 1407 1412 1413 1413 1418 1421 1425 1427 1426 1436 1445 1453 1464 1470 1472 1475 1484 1478 1478 1458 1436 1433 1434 1440 1443 1449 1455 1460 1463 1467 1470 1472 1474 1476 1478 1477 1477 1477 1475 1474 1473 1471
1382 1381 1385 1390 1392 1397 1399 1396 1406 1405 1400 1396 1397 1397 1402 1400 1404 1412 1416 1420 1424 1428 1432 1440 1448 1448 1462 1464 1462 1452 1440 1424 1422 1423 1428 1436 1441 1446 1453 1459 1464 1465 1467 1470 1471 1474 1473 1473 1474 1473 1472 1469 1471 1470
1372 1374 1381 1385 1387 1391 1389 1392 1397 1394 1392 1388 1391 1390 1396 1397 1396 1404 1409 1417 1421 1424 1427 1429 1433 1440 1438 1439 1430 1416 1417 1420 1421 1423 1426 1432 1437 1445 1451 1458 1461 1463 1464 1467 1467 1470 1471 1470 1470 1469 1468 1466 1466 1466
1365 1371 1375 1378 1380 1381 1385 1388 1387 1387 1391 1389 1389 1389 1392 1395 1395 1398 1401 1409 1412 1419 1424 1425 1424 1418 1415 1412 1405 1408 1410 1411 1415 1424 1430 1433 1435 1438 1444 1453 1460 1461 1461 1463 1464 1467 1468 1469 1468 1467 1465 1463 1463 1463
1362 1367 1370 1372 1373 1374 1377 1381 1382 1384 1388 1389 1389 1389 1391 1393 1395 1397 1403 1406 1410 1417 1422 1416 1405 1401 1403 1401 1401 1402 1405 1410 1413 1421 1427 1433 1437 1441 1449 1451 1452 1459 1458 1459 1460 1461 1463 1464 1464 1464 1463 1462 1461 1461
1356 1358 1360 1364 1367 1370 1373 1376 1379 1383 1384 1390 1391 1391 1393 1396 1398 1399 1402 1406 1408 1406 1398 1394 1393 1396 1399 1399 1400 1401 1403 1408 1413 1415 1417 1427 1434 1437 1446 1449 1448 1453 1454 1456 1459 1458 1460 1460 1462 1461 1460 1459 1459 1459
1350 1354 1356 1358 1361 1366 1370 1374 1376 1381 1384 1387 1393 1391 1392 1394 1395 1396 1397 1399 1391 1381 1385 1386 1388 1394 1396 1397 1400 1401 1404 1408 1414 1419 1423 1423 1428 1434 1440 1444 1447 1449 1448 1451 1453 1454 1454 1456 1460 1460 1457 1456 1456 1456
1349 1353 1355 1357 1361 1367 1376 1375 1379 1381 1384 1388 1388 1389 1391 1391 1392 1395 1394 1385 1376 1374 1378 1384 1386 1390 1394 1396 1397 1397 1402 1407 1414 1418 1419 1422 1429 1433 1436 1440 1444 1447 1447 1448 1450 1451 1451 1453 1456 1457 1455 1454 1454 1454
1347 1351 1352 1355 1360 1370 1374 1375 1377 1380 1381 1384 1385 1388 1390 1391 1392 1392 1382 1370 1364 1365 1370 1375 1383 1386 1390 1391 1394 1396 1399 1405 1413 1416 1417 1421 1425 1431 1434 1437 1441 1443 1444 1446 1447 1447 1449 1451 1453 1453 1452 1452 1452 1452
1347 1351 1352 1355 1358 1363 1368 1371 1373 1374 1373 1375 1382 1388 1390 1392 1391 1384 1372 1360 1355 1356 1362 1368 1373 1381 1382 1388 1392 1394 1397 1402 1406 1411 1414 1418 1424 1428 1431 1433 1438 1440 1440 1443 1443 1444 1446 1448 1449 1450 1450 1450 1449 1449
1339 1345 1347 1348 1353 1353 1356 1360 1362 1363 1368 1371 1375 1380 1383 1385 1380 1365 1355 1349 1350 1352 1354 1355 1359 1368 1373 1378 1383 1386 1392 1397 1403 1407 1410 1415 1421 1424 1426 1429 1434 1436 1437 1439 1439 1441 1443 1445 1446 1447 1447 1447 1446 1446
1338 1341 1342 1343 1345 1347 1351 1353 1355 1357 1360 1363 1370 1375 1375 1372 1360 1350 1347 1347 1350 1352 1351 1353 1360 1364 1368 1373 1379 1384 1391 1396 1400 1405 1410 1415 1419 1423 1426 1427 1429 1432 1433 1435 1436 1438 1440 1441 1442 1443 1443 1443 1443 1443
1334 1336 1339 1342 1343 1344 1346 1348 1350 1349 1350 1354 1360 1362 1356 1349 1346 1351 1348 1349 1348 1349 1348 1348 1353 1361 1366 1371 1376 1381 1387 1392 1397 1403 1408 1412 1416 1420 1422 1424 1425 1427 1429 1431 1433 1435 1436 1438 1439 1440 1440 1440 1440 1440
1334 1335 1337 1341 1342 1343 1344 1344 1344 1347 1349 1351 1351 1349 1352 1353 1352 1350 1349 1348 1348 1346 1343 1346 1351 1357 1363 1367 1372 1378 1384 1387 1393 1398 1404 1407 1411 1415 1418 1419 1420 1424 1427 1428 1429 1431 1433 1434 1435 1436 1436 1437 1437 1437
1335 1336 1337 1338 1339 1342 1347 1346 1348 1348 1348 1350 1351 1353 1354 1355 1356 1353 1351 1349 1349 1347 1349 1353 1356 1357 1360 1365 1370 1377 1382 1389 1393 1399 1401 1405 1409 1412 1413 1413 1415 1419 1422 1423 1425 1428 1430 1430 1431 1431 1432 1433 1434 1434
1334 1335 1337 1340 1344 1346 1346 1346 1347 1349 1350 1351 1350 1351 1353 1355 1356 1356 1354 1355 1355 1354 1355 1358 1360 1363 1367 1371 1375 1381 1386 1391 1395 1398 1401 1405 1405 1406 1407 1409 1411 1414 1416 1419 1421 1425 1426 1426 1427 1428 1429 1430 1430 1430
1335 1336 1337 1340 1346 1348 1348 1349 1349 1350 1350 1350 1351 1352 1355 1357 1360 1361 1360 1360 1360 1360 1361 1364 1368 1372 1374 1378 1383 1387 1390 1393 1395 1397 1399 1400 1400 1402 1404 1406 1408 1410 1413 1415 1418 1420 1422 1423 1424 1425 1426 1426 1426 1427
1338 1338 1339 1341 1345 1346 1348 1348 1349 1351 1351 1352 1354 1356 1358 1360 1365 1368 1367 1366 1367 1368 1369 1372 1375 1378 1380 1382 1385 1388 1389 1390 1392 1394 1395 1397 1398 1400 1402 1404 1406 1408 1409 1411 1413 1416 1417 1418 1419 1420 1421 1421 1422 1422
Wind_Speed
25 37 47 50 43 43 40 38 35 32 31 31 27 23 22 23 22 20 18 16 16 6 8 13 11 8 7 6 3 8 5 3 3 3 2 0 3 1 3 4 3 4 3 3 2 4 6 1 10 5 13 27 32 33
25 22 32 43 47 45 44 44 41 39 36 33 32 28 25 25 24 22 21 17 18 12 7 13 15 14 13 10 8 11 2 4 5 2 2 1 4 3 2 4 2 3 5 2 6 4 3 11 8 17 16 25 31 32
26 24 24 22 27 44 55 48 45 45 41 39 35 32 29 27 27 26 24 18 17 13 10 9 10 15 15 13 13 6 6 8 6 7 3 1 6 2 4 5 3 6 5 4 4 4 8 10 15 10 16 24 27 28
32 30 26 24 21 22 41 57 53 49 48 45 41 37 34 30 30 28 26 21 20 6 5 5 12 11 14 14 14 15 8 8 6 7 3 3 3 6 2 2 4 2 10 6 8 19 16 7 7 13 21 22 29 33
26 33 36 28 25 23 24 42 54 50 49 50 48 42 39 33 31 29 26 24 23 16 4 3 7 12 12 13 13 12 11 10 8 5 4 3 2 3 3 3 6 14 7 7 3 2 3 9 10 18 20 24 27 33
24 25 32 38 30 27 23 23 42 54 51 49 55 49 44 39 32 29 16 28 27 26 5 3 7 8 12 11 11 12 12 11 7 4 4 3 4 3 3 4 9 22 17 15 2 4 8 15 18 16 21 26 27 30
25 24 26 32 36 31 27 21 23 40 53 53 51 56 50 43 38 32 11 10 33 26 7 3 4 5 12 12 11 9 10 6 5 3 4 3 3 5 3 5 5 13 20 19 15 14 13 9 10 21 23 23 26 28
31 25 25 26 34 35 34 25 20 22 50 54 55 56 52 45 43 37 24 13 32 18 8 4 3 5 16 7 6 9 5 6 5 4 3 5 3 6 6 19 13 8 10 15 17 15 17 18 18 18 19 21 25 28
34 30 26 25 25 35 33 34 24 21 31 53 51 53 45 32 24 27 28 22 34 12 9 9 8 5 17 5 5 6 6 4 4 5 5 7 5 8 12 13 16 22 11 7 7 10 11 14 15 15 16 18 22 26
35 34 31 26 24 28 30 31 29 28 30 56 58 24 12 15 15 27 19 18 14 11 9 7 9 5 12 10 7 7 5 3 3 4 6 5 5 31 24 17 9 13 18 16 9 7 8 10 12 13 14 16 19 23
36 34 34 30 24 23 30 21 30 19 51 48 19 9 15 26 17 12 10 9 11 5 10 10 12 8 13 5 5 8 4 4 3 4 4 4 5 6 13 24 21 13 12 12 10 8 9 11 13 13 13 15 18 21
34 34 32 31 25 21 27 20 27 31 38 38 17 29 30 9 5 5 6 6 7 7 11 12 7 7 9 7 6 7 4 3 4 8 3 4 5 13 9 19 26 21 17 14 10 8 8 8 11 12 13 14 17 18
33 34 31 28 24 19 21 23 32 37 43 24 8 10 9 7 5 8 10 6 6 13 16 17 9 9 7 5 6 4 6 5 6 4 5 6 4 13 17 21 20 17 14 10 8 6 6 7 9 11 13 14 16 18
32 34 30 28 23 19 25 33 43 44 30 15 11 7 7 5 7 7 5 6 9 15 30 28 12 7 5 4 5 5 3 5 4 5 7 4 21 22 23 21 18 14 10 7 5 4 5 6 7 9 12 14 17 17
32 35 29 28 25 21 24 34 51 54 15 10 10 7 9 8 5 7 14 17 13 34 36 19 10 6 4 4 3 5 5 6 8 6 3 7 21 30 28 23 18 13 10 7 5 4 5 7 9 9 11 13 16 18
31 30 32 28 25 24 13 45 50 42 16 11 8 5 3 7 4 8 11 12 31 35 23 8 5 5 4 5 6 9 7 9 5 4 8 16 29 30 27 22 17 12 9 7 5 4 5 7 9 11 12 13 15 17
28 32 29 24 23 23 21 59 33 17 11 7 5 11 12 4 12 12 17 20 36 34 5 6 7 6 6 4 6 7 6 3 7 15 19 28 32 30 26 21 16 13 10 7 5 5 5 8 10 12 14 14 15 15
34 29 23 17 15 21 37 33 15 8 5 6 6 10 16 6 17 19 19 33 26 17 11 4 9 5 7 7 5 5 12 10 11 20 29 30 29 26 23 19 16 13 10 8 6 5 7 8 10 11 13 13 13 14
31 22 18 19 21 26 17 11 6 5 1 3 7 13 9 10 11 23 28 41 14 16 11 9 4 5 5 7 5 13 23 22 26 26 27 26 27 26 24 19 15 12 10 7 5 6 7 8 9 10 10 10 11 11
19 16 14 17 28 10 7 5 6 5 3 4 6 9 7 5 14 21 32 30 21 11 5 5 5 5 7 12 15 15 26 27 34 32 28 27 26 23 20 17 15 12 10 7 6 6 6 6 7 6 7 8 8 8
21 23 22 35 18 6 5 6 5 4 10 4 10 9 5 15 13 15 21 23 9 8 4 13 13 13 13 9 13 15 25 31 36 34 36 32 28 24 21 19 15 14 10 8 7 6 5 4 5 5 6 7 7 8
20 28 22 23 4 5 5 5 8 9 5 7 7 5 5 4 5 11 18 9 8 14 13 11 17 17 16 15 18 17 26 31 30 21 24 25 30 28 25 20 18 15 12 9 8 6 5 4 6 6 5 6 7 7
21 20 7 5 5 4 5 11 4 4 4 4 5 3 2 3 7 15 6 9 9 13 23 20 16 19 19 20 20 20 28 30 28 22 23 22 22 21 21 20 17 14 12 10 8 6 5 5 6 6 5 5 6 7
19 10 5 4 4 4 7 3 4 5 6 4 3 3 2 2 13 4 5 5 12 19 26 27 25 25 26 22 24 26 32 30 26 23 21 22 24 24 21 17 16 14 12 10 9 6 6 6 7 7 6 6 7 7
7 5 6 4 5 6 4 5 4 4 4 4 5 2 3 6 4 5 4 5 18 26 28 32 33 34 36 35 31 30 32 32 30 26 23 22 23 23 20 18 17 15 13 12 9 7 7 7 7 7 8 7 7 8
3 4 4 5 4 5 6 5 7 5 4 4 4 6 6 3 4 6 4 4 9 18 33 40 46 44 40 41 39 34 35 32 27 22 21 24 25 21 19 20 18 16 13 12 10 8 8 7 7 8 8 8 8 9
5 5 4 5 6 7 4 4 6 3 5 6 5 8 5 5 7 2 2 3 4 7 18 28 34 38 38 37 35 31 28 27 27 23 19 22 21 18 17 17 15 13 11 11 10 9 8 8 8 8 8 8 9 9
3 7 6 9 3 4 4 3 5 6 4 7 11 7 7 5 1 3 2 7 7 8 9 15 25 29 31 28 31 29 29 31 26 22 21 23 22 22 20 18 15 13 11 11 11 10 10 10 9 9 8 8 9 10
3 6 7 3 3 3 1 1 2 2 6 9 3 1 1 3 7 7 6 6 3 3 6 10 19 23 22 22 25 26 28 30 30 30 28 27 26 24 21 18 15 13 13 13 12 11 12 11 10 9 9 9 9 10
2 5 2 2 3 2 1 1 2 4 5 6 4 4 3 4 9 9 7 6 6 8 9 12 17 19 22 25 27 26 26 28 27 27 28 25 21 18 17 16 15 15 15 14 12 13 13 12 11 11 11 10 10 10
4 2 4 4 3 1 3 6 6 7 5 4 6 5 5 4 8 15 14 10 10 11 11 11 13 16 18 18 21 24 26 25 24 21 19 17 16 16 14 14 15 15 14 13 14 14 13 12 11 12 12 11 11 12
2 2 1 3 2 5 6 2 3 2 2 2 4 5 4 3 5 7 13 10 9 10 12 13 16 17 17 17 17 15 15 16 17 17 16 15 13 13 13 13 13 13 14 15 15 14 13 13 12 12 12 12 12 13
3 3 4 5 3 3 3 2 1 2 3 3 5 5 5 5 5 11 10 9 5 6 9 10 12 13 14 13 12 9 9 10 12 14 14 13 13 12 11 12 13 14 15 15 15 15 14 14 13 13 13 14 14 14
Wind_Direction
236 235 231 238 237 236 233 234 236 238 238 239 241 243 242 236 232 230 231 231 221 236 246 209 206 183 175 187 197 165 147 184 179 215 241 215 250 79 277 253 235 227 218 221 217 259 285 42 306 345 316 306 313 319
252 249 227 232 235 240 237 235 234 235 237 238 237 240 240 236 231 229 229 226 227 232 248 225 223 221 217 203 185 177 229 155 176 189 217 249 228 187 277 277 189 256 223 256 222 259 137 306 284 303 304 307 314 317
247 254 258 244 238 236 242 241 237 235 235 237 235 237 238 234 229 228 230 226 218 239 261 230 228 221 219 215 209 178 207 203 192 181 162 291 245 186 237 229 254 219 192 245 317 213 274 298 304 302 311 309 313 317
270 250 254 261 263 254 236 243 244 238 236 234 233 232 233 231 228 227 227 226 214 201 225 222 225 213 214 211 213 216 227 200 186 179 195 220 247 195 252 327 254 351 160 223 257 278 287 260 294 306 310 313 319 325
283 273 251 255 266 268 262 241 245 247 247 234 232 228 227 226 224 223 226 226 218 203 173 173 211 221 217 212 215 216 216 202 175 173 187 229 238 219 213 291 239 187 195 189 263 155 256 304 314 310 309 318 324 327
271 279 272 253 249 267 270 267 241 245 249 249 230 226 220 217 215 210 220 229 217 214 220 183 216 203 202 202 201 202 195 196 182 192 209 224 217 209 260 248 247 213 215 218 331 246 280 300 309 310 315 324 326 328
270 271 276 268 249 246 269 278 263 246 247 251 251 224 215 212 205 194 204 210 199 194 194 146 200 182 173 165 172 180 190 203 187 211 225 223 198 213 256 247 218 224 230 231 244 266 288 294 297 310 312 318 324 331
266 267 269 273 261 245 251 271 292 273 245 244 238 227 211 202 199 204 209 189 177 177 194 152 119 170 174 179 174 184 179 197 218 229 210 203 174 224 253 238 238 228 210 223 238 253 263 278 297 305 308 319 326 332
258 265 268 267 267 250 239 259 275 311 261 226 189 185 182 186 193 201 204 189 174 185 182 177 169 181 168 155 143 160 174 197 195 227 216 186 192 228 227 232 229 217 198 191 212 236 263 284 299 304 312 321 324 331
252 258 265 271 268 254 241 245 263 282 214 183 180 171 183 194 181 183 159 173 193 210 216 203 132 145 161 162 164 147 182 219 228 205 163 226 252 250 241 229 218 210 213 217 213 254 277 288 299 303 312 318 322 325
247 254 261 266 265 256 241 241 253 257 193 174 184 167 151 152 146 168 154 167 186 222 203 175 175 141 170 149 151 196 179 174 235 169 220 246 260 238 232 216 209 200 197 203 229 266 278 289 296 304 313 318 322 328
246 249 256 261 264 254 237 259 206 196 193 190 183 136 147 200 194 155 179 160 199 201 151 147 143 128 138 145 120 170 171 167 236 151 238 253 246 229 203 181 196 205 213 234 245 252 265 280 289 304 313 320 321 328
243 242 250 256 261 249 215 232 199 194 200 178 152 152 172 174 207 199 186 199 196 160 168 154 134 139 131 148 108 150 179 198 129 208 233 237 212 185 170 163 168 172 180 197 219 241 263 278 291 308 313 316 319 326
241 238 245 251 250 232 205 207 200 196 176 184 162 176 214 184 224 203 183 151 160 157 150 140 123 136 140 138 140 154 126 142 211 236 236 229 207 179 167 159 164 166 176 193 214 252 275 287 298 310 313 317 319 323
236 235 243 248 239 231 208 212 204 194 175 172 177 210 200 200 183 180 158 140 143 149 143 127 98 125 136 127 175 110 161 227 219 229 227 207 180 175 172 171 171 175 181 189 213 237 271 294 308 314 313 315 314 318
230 233 239 244 231 222 222 201 187 190 204 187 195 149 140 137 143 169 166 143 147 146 135 125 138 157 164 153 165 203 188 222 218 198 198 173 171 174 173 174 174 180 186 194 210 237 272 296 307 312 313 315 314 315
221 226 237 239 227 223 226 182 184 209 216 191 180 200 182 155 172 172 169 165 158 154 156 147 162 168 117 196 211 192 212 223 170 175 172 171 170 171 171 175 181 185 187 202 220 250 278 295 303 308 312 318 315 314
220 225 234 208 223 221 180 187 196 217 206 193 180 174 186 173 155 160 167 162 161 187 157 174 129 180 190 195 212 209 202 192 170 171 165 166 167 168 172 180 184 189 194 207 226 259 284 295 302 308 313 317 318 316
214 222 217 216 215 183 176 193 189 164 241 181 166 164 162 163 184 187 175 165 173 176 155 163 201 198 209 218 210 190 187 176 165 163 165 165 168 169 174 182 192 195 197 209 235 266 284 293 303 309 315 319 318 314
205 209 211 219 210 165 151 141 163 133 155 183 155 151 143 160 166 178 168 171 162 157 199 217 216 213 210 224 210 204 189 178 165 157 162 169 174 178 186 190 190 199 200 208 230 253 272 288 298 309 315 315 313 312
195 206 217 196 175 136 121 135 110 126 135 147 147 143 120 143 149 160 162 166 174 213 222 219 222 218 217 211 192 191 182 178 177 176 175 175 181 182 191 194 193 201 202 208 226 244 265 278 283 293 301 302 300 303
191 183 173 174 129 108 99 113 128 130 117 138 149 131 140 157 151 158 163 190 227 222 208 214 210 210 205 196 188 180 180 181 182 182 184 183 182 187 193 196 198 201 199 205 214 224 234 254 269 280 295 299 297 299
178 174 154 140 106 90 121 130 117 131 127 158 135 121 162 159 159 156 211 234 238 221 221 218 204 201 198 191 188 183 183 182 182 181 179 182 191 193 190 191 197 203 201 203 208 213 221 242 253 267 288 295 294 293
175 168 155 126 112 116 146 135 134 127 118 169 172 170 192 146 165 228 251 239 228 221 215 209 203 197 193 191 186 181 183 183 186 184 183 184 183 187 188 191 195 201 201 206 207 209 226 235 246 260 271 280 282 287
161 181 166 125 142 129 145 146 163 183 156 150 145 163 185 174 204 230 238 253 224 216 209 201 202 210 203 202 194 190 191 190 190 189 187 187 190 186 188 191 197 202 204 209 210 221 232 240 251 259 260 267 275 279
138 178 166 154 161 181 168 148 182 158 135 138 172 129 158 190 226 239 217 242 227 221 209 204 201 202 205 210 195 189 194 191 193 195 197 196 196 200 197 196 200 203 206 209 216 223 233 245 254 255 256 263 271 278
167 192 175 158 145 141 131 108 139 155 170 169 171 174 172 202 231 223 282 264 251 226 208 211 210 209 206 203 198 199 199 200 199 203 201 196 195 198 202 207 208 210 213 219 223 225 233 244 250 252 255 263 270 275
123 162 170 167 140 161 137 161 177 190 155 151 146 191 194 213 12 335 331 307 289 254 221 202 202 209 213 212 207 205 204 199 195 198 193 191 195 202 206 210 214 218 223 227 225 227 236 243 247 251 256 262 266 271
95 132 127 113 134 154 92 179 151 127 148 173 209 166 136 41 358 341 321 328 292 200 171 182 188 192 196 195 194 196 201 198 195 190 192 194 198 205 208 212 221 231 232 229 227 232 239 242 243 248 254 258 262 269
128 153 120 118 138 130 66 122 155 154 155 153 125 108 84 69 33 35 43 71 91 106 137 161 170 171 176 178 179 181 187 191 197 203 198 204 209 211 213 219 227 232 230 224 226 232 236 236 241 247 253 250 255 263
130 112 86 61 82 100 129 120 117 122 124 91 94 100 113 121 56 47 54 74 86 100 115 136 147 151 159 165 174 175 179 185 188 195 204 211 215 220 221 220 219 216 217 220 224 229 232 237 241 245 249 250 256 265
66 68 129 122 118 137 129 129 133 122 107 92 60 74 71 76 58 44 34 60 84 111 105 118 143 150 150 154 158 168 182 191 204 212 221 224 216 210 209 208 208 210 214 217 222 228 233 238 242 247 250 255 259 264
102 91 95 111 124 167 152 124 105 114 66 79 58 63 57 60 67 21 23 34 67 105 140 140 151 154 160 168 178 193 206 210 211 212 211 209 207 207 211 214 216 217 219 223 227 231 235 239 243 248 253 257 260 264